This is the latest recevied weather packets stored in our database for station/object N3DOU-1. If no packets are shown the sender has not sent any weather packets the latest 10 day(s).
| Time | Temp. | Humidity | Pressure | Rain* | Wind** | Luminosity | Snow |
|---|---|---|---|---|---|---|---|
| 1777425084 | 13.33° C | 70% | 1016.4 hPa | 0 mm | - | - | - |
| 1777424184 | 13.33° C | 73% | 1016.9 hPa | 0 mm | - | - | - |
| 1777423285 | 13.89° C | 79% | 1017 hPa | 0 mm | - | - | - |
| 1777422386 | 13.89° C | 74% | 1017.4 hPa | 0 mm | - | - | - |
| 1777421485 | 13.89° C | 75% | 1017.8 hPa | 0 mm | - | - | - |
| 1777420582 | 14.44° C | 75% | 1017.9 hPa | 0 mm | - | - | - |
| 1777419684 | 14.44° C | 77% | 1017.8 hPa | 0 mm | - | - | - |
| 1777417884 | 15° C | 73% | 1017.8 hPa | 0 mm | - | - | - |
| 1777416984 | 15° C | 72% | 1017.9 hPa | 0 mm | - | - | - |
| 1777416084 | 15° C | 72% | 1018 hPa | 0 mm | - | - | - |
| 1777414284 | 15.56° C | 70% | 1017.9 hPa | 0 mm | - | - | - |
| 1777413385 | 15.56° C | 69% | 1018 hPa | 0 mm | - | - | - |
| 1777412485 | 15.56° C | 69% | 1018 hPa | 0 mm | - | - | - |
| 1777410684 | 15.56° C | 67% | 1017.8 hPa | 0 mm | - | - | - |
| 1777409784 | 15° C | 68% | 1017.8 hPa | 0 mm | - | - | - |
| 1777407984 | 15° C | 68% | 1018.2 hPa | 0 mm | - | - | - |
| 1777407086 | 14.44° C | 70% | 1018.4 hPa | 0 mm | - | - | - |
| 1777405284 | 14.44° C | 69% | 1018.8 hPa | 0 mm | - | - | - |
| 1777404384 | 14.44° C | 70% | 1019.1 hPa | 0 mm | - | - | - |
| 1777403484 | 14.44° C | 69% | 1019.3 hPa | 0 mm | - | - | - |
| 1777402584 | 14.44° C | 72% | 1019.6 hPa | 0 mm | - | - | - |
| 1777401685 | 13.89° C | 76% | 1019.7 hPa | 0 mm | - | - | - |
| 1777400785 | 13.89° C | 78% | 1019.8 hPa | 0 mm | - | - | - |
| 1777399885 | 13.33° C | 83% | 1019.7 hPa | 0 mm | - | - | - |
| 1777398984 | 12.78° C | 82% | 1020 hPa | 0 mm | - | - | - |
* Rain latest hour (hover to see other rain measurements)
** Current wind speed in m/s (hover to see current wind gust speed)